Time,TemperatureF,DewpointF,PressureIn,WindDirection,WindDirectionDegrees,WindSpeedMPH,WindSpeedGustMPH,Humidity,HourlyPrecipIn,Conditions,Clouds,dailyrainin,SoftwareType,DateUTC
2010-05-26 00:01:00,66.2,64.7,30.05,SW,230,0.0,0.0,95,0.00,,,0.00,WeatherTracker,2010-05-26 05:01:00,
2010-05-26 00:06:00,66.2,64.7,30.05,SW,229,0.0,0.0,95,0.00,,,0.00,WeatherTracker,2010-05-26 05:06:00,
2010-05-26 00:11:00,66.1,64.6,30.04,SW,230,0.0,0.0,95,0.00,,,0.00,WeatherTracker,2010-05-26 05:11:00,
2010-05-26 00:16:00,66.2,64.7,30.04,SW,229,1.0,0.0,95,0.00,,,0.00,WeatherTracker,2010-05-26 05:16:00,
2010-05-26 00:21:00,66.2,64.7,30.04,SW,229,0.0,0.0,95,0.00,,,0.00,WeatherTracker,2010-05-26 05:21:00,
2010-05-26 00:26:00,66.2,64.7,30.04,SW,229,0.0,0.0,95,0.00,,,0.00,WeatherTracker,2010-05-26 05:26:00,
2010-05-26 00:32:00,66.2,64.7,30.04,SW,229,0.0,0.0,95,0.00,,,0.00,WeatherTracker,2010-05-26 05:32:00,
2010-05-26 00:37:00,66.3,64.8,30.04,SW,229,0.0,0.0,95,0.00,,,0.00,WeatherTracker,2010-05-26 05:37:00,
2010-05-26 00:42:00,66.2,64.7,30.04,SW,230,0.0,0.0,95,0.00,,,0.00,WeatherTracker,2010-05-26 05:42:00,
2010-05-26 00:47:00,66.2,64.7,30.04,SW,230,0.0,0.0,95,0.00,,,0.00,WeatherTracker,2010-05-26 05:47:00,
2010-05-26 00:52:00,66.2,64.7,30.03,SW,229,0.0,0.0,95,0.00,,,0.00,WeatherTracker,2010-05-26 05:52:00,
2010-05-26 00:57:00,66.1,64.6,30.03,SW,229,0.0,0.0,95,0.00,,,0.00,WeatherTracker,2010-05-26 05:57:00,
2010-05-26 01:02:00,66.1,64.6,30.03,SW,230,0.0,0.0,95,0.00,,,0.00,WeatherTracker,2010-05-26 06:02:00,
2010-05-26 01:07:00,66.1,64.6,30.03,SW,229,0.0,0.0,95,0.00,,,0.00,WeatherTracker,2010-05-26 06:07:00,
2010-05-26 01:12:00,66.1,64.6,30.03,SW,229,0.0,0.0,95,0.00,,,0.00,WeatherTracker,2010-05-26 06:12:00,
2010-05-26 01:17:00,66.0,64.5,30.03,SW,230,0.0,0.0,95,0.00,,,0.00,WeatherTracker,2010-05-26 06:17:00,
2010-05-26 01:22:00,65.9,64.4,30.03,SW,230,0.0,0.0,95,0.00,,,0.00,WeatherTracker,2010-05-26 06:22:00,
2010-05-26 01:27:00,65.8,64.3,30.03,SW,230,0.0,0.0,95,0.00,,,0.00,WeatherTracker,2010-05-26 06:27:00,
2010-05-26 01:32:00,65.6,64.1,30.03,SW,229,0.0,0.0,95,0.00,,,0.00,WeatherTracker,2010-05-26 06:32:00,
2010-05-26 01:37:00,65.5,64.0,30.03,SW,230,0.0,0.0,95,0.00,,,0.00,WeatherTracker,2010-05-26 06:37:00,
2010-05-26 01:42:00,65.4,63.9,30.03,SW,230,0.0,0.0,95,0.00,,,0.00,WeatherTracker,2010-05-26 06:42:00,
2010-05-26 01:47:00,65.3,63.8,30.03,SW,229,0.0,0.0,95,0.00,,,0.00,WeatherTracker,2010-05-26 06:47:00,
2010-05-26 01:52:00,65.2,63.7,30.03,SW,229,0.0,0.0,95,0.00,,,0.00,WeatherTracker,2010-05-26 06:52:00,
2010-05-26 01:57:00,65.3,63.8,30.03,SW,229,0.0,0.0,95,0.00,,,0.00,WeatherTracker,2010-05-26 06:57:00,
2010-05-26 02:02:00,65.3,63.8,30.03,SW,229,0.0,0.0,95,0.00,,,0.00,WeatherTracker,2010-05-26 07:02:00,
2010-05-26 02:07:00,65.2,63.7,30.03,SW,230,0.0,0.0,95,0.00,,,0.00,WeatherTracker,2010-05-26 07:07:00,
2010-05-26 02:12:00,65.1,63.6,30.03,SW,229,0.0,0.0,95,0.00,,,0.00,WeatherTracker,2010-05-26 07:12:00,
2010-05-26 02:17:00,65.0,63.5,30.03,SW,229,0.0,0.0,95,0.00,,,0.00,WeatherTracker,2010-05-26 07:17:00,
2010-05-26 02:22:00,65.0,63.8,30.03,SW,229,0.0,0.0,96,0.00,,,0.00,WeatherTracker,2010-05-26 07:22:00,
2010-05-26 02:27:00,65.0,63.8,30.03,SW,229,0.0,0.0,96,0.00,,,0.00,WeatherTracker,2010-05-26 07:27:00,
2010-05-26 02:32:00,65.0,63.8,30.03,SW,229,0.0,0.0,96,0.00,,,0.00,WeatherTracker,2010-05-26 07:32:00,
2010-05-26 02:37:00,65.0,63.8,30.02,SW,229,0.0,0.0,96,0.00,,,0.00,WeatherTracker,2010-05-26 07:37:00,
2010-05-26 02:42:00,65.0,63.8,30.02,SW,229,0.0,0.0,96,0.00,,,0.00,WeatherTracker,2010-05-26 07:42:00,
2010-05-26 02:47:00,65.0,63.8,30.02,SW,229,0.0,0.0,96,0.00,,,0.00,WeatherTracker,2010-05-26 07:47:00,
2010-05-26 02:52:00,65.0,63.8,30.03,SW,229,0.0,0.0,96,0.00,,,0.00,WeatherTracker,2010-05-26 07:52:00,
2010-05-26 02:58:00,65.0,63.8,30.02,SW,230,0.0,0.0,96,0.00,,,0.00,WeatherTracker,2010-05-26 07:58:00,
2010-05-26 03:03:00,64.9,63.7,30.02,SW,229,0.0,0.0,96,0.00,,,0.00,WeatherTracker,2010-05-26 08:03:00,
2010-05-26 03:07:00,64.9,63.7,30.02,SW,230,0.0,0.0,96,0.00,,,0.00,WeatherTracker,2010-05-26 08:07:00,
2010-05-26 03:12:00,64.8,63.6,30.02,SW,229,0.0,0.0,96,0.00,,,0.00,WeatherTracker,2010-05-26 08:12:00,
2010-05-26 03:17:00,64.7,63.5,30.02,SW,230,0.0,0.0,96,0.00,,,0.00,WeatherTracker,2010-05-26 08:17:00,
2010-05-26 03:23:00,64.6,63.4,30.03,SW,230,0.0,0.0,96,0.00,,,0.00,WeatherTracker,2010-05-26 08:23:00,
2010-05-26 03:28:00,64.7,63.5,30.03,SW,230,0.0,0.0,96,0.00,,,0.00,WeatherTracker,2010-05-26 08:28:00,
2010-05-26 03:33:00,64.7,63.5,30.03,SW,230,0.0,0.0,96,0.00,,,0.00,WeatherTracker,2010-05-26 08:33:00,
2010-05-26 03:38:00,64.6,63.4,30.03,SW,229,0.0,0.0,96,0.00,,,0.00,WeatherTracker,2010-05-26 08:38:00,
2010-05-26 03:43:00,64.5,63.3,30.03,SW,229,0.0,0.0,96,0.00,,,0.00,WeatherTracker,2010-05-26 08:43:00,
2010-05-26 03:48:00,64.5,63.3,30.03,SW,230,0.0,0.0,96,0.00,,,0.00,WeatherTracker,2010-05-26 08:48:00,
2010-05-26 03:53:00,64.4,63.2,30.03,SW,229,0.0,0.0,96,0.00,,,0.00,WeatherTracker,2010-05-26 08:53:00,
2010-05-26 03:58:00,64.2,63.0,30.03,SW,229,0.0,0.0,96,0.00,,,0.00,WeatherTracker,2010-05-26 08:58:00,
2010-05-26 04:03:00,64.1,62.9,30.04,SW,229,0.0,0.0,96,0.00,,,0.00,WeatherTracker,2010-05-26 09:03:00,
2010-05-26 04:08:00,64.0,62.8,30.04,SW,229,0.0,0.0,96,0.00,,,0.00,WeatherTracker,2010-05-26 09:08:00,
2010-05-26 04:13:00,64.0,62.8,30.04,SW,230,0.0,0.0,96,0.00,,,0.00,WeatherTracker,2010-05-26 09:13:00,
2010-05-26 04:18:00,64.0,62.8,30.04,SW,229,0.0,0.0,96,0.00,,,0.00,WeatherTracker,2010-05-26 09:18:00,
2010-05-26 04:23:00,63.8,62.6,30.04,SW,229,0.0,0.0,96,0.00,,,0.00,WeatherTracker,2010-05-26 09:23:00,
2010-05-26 04:28:00,63.7,62.5,30.04,SW,230,0.0,0.0,96,0.00,,,0.00,WeatherTracker,2010-05-26 09:28:00,
2010-05-26 04:33:00,63.6,62.4,30.04,SW,229,0.0,0.0,96,0.00,,,0.00,WeatherTracker,2010-05-26 09:33:00,
2010-05-26 04:38:00,63.4,62.2,30.04,SW,230,0.0,0.0,96,0.00,,,0.00,WeatherTracker,2010-05-26 09:38:00,
2010-05-26 04:43:00,63.3,62.1,30.04,SW,229,0.0,0.0,96,0.00,,,0.00,WeatherTracker,2010-05-26 09:43:00,
2010-05-26 04:48:00,63.2,62.0,30.04,SW,230,0.0,0.0,96,0.00,,,0.00,WeatherTracker,2010-05-26 09:48:00,
2010-05-26 04:53:00,63.1,61.9,30.04,SW,229,0.0,0.0,96,0.00,,,0.00,WeatherTracker,2010-05-26 09:53:00,
2010-05-26 04:58:00,62.9,61.7,30.04,SW,229,0.0,0.0,96,0.00,,,0.00,WeatherTracker,2010-05-26 09:58:00,
2010-05-26 05:03:00,62.8,61.6,30.05,SW,229,0.0,0.0,96,0.00,,,0.00,WeatherTracker,2010-05-26 10:03:00,
2010-05-26 05:08:00,62.7,61.5,30.05,SW,229,0.0,0.0,96,0.00,,,0.00,WeatherTracker,2010-05-26 10:08:00,
2010-05-26 05:13:00,62.6,61.4,30.05,SW,229,0.0,0.0,96,0.00,,,0.00,WeatherTracker,2010-05-26 10:13:00,
2010-05-26 05:18:00,62.5,61.3,30.05,SW,230,0.0,0.0,96,0.00,,,0.00,WeatherTracker,2010-05-26 10:18:00,
2010-05-26 05:23:00,62.3,61.1,30.05,SW,230,0.0,0.0,96,0.00,,,0.00,WeatherTracker,2010-05-26 10:23:00,
2010-05-26 05:28:00,62.2,61.0,30.05,SW,230,0.0,0.0,96,0.00,,,0.00,WeatherTracker,2010-05-26 10:28:00,
2010-05-26 05:33:00,62.1,60.9,30.06,SW,229,0.0,0.0,96,0.00,,,0.00,WeatherTracker,2010-05-26 10:33:00,
2010-05-26 05:38:00,62.3,61.1,30.06,SW,229,0.0,0.0,96,0.00,,,0.00,WeatherTracker,2010-05-26 10:38:00,
2010-05-26 05:44:00,62.3,61.1,30.06,SW,229,0.0,0.0,96,0.00,,,0.00,WeatherTracker,2010-05-26 10:44:00,
2010-05-26 05:49:00,62.3,61.1,30.05,SW,229,0.0,0.0,96,0.00,,,0.00,WeatherTracker,2010-05-26 10:49:00,
2010-05-26 05:54:00,62.2,61.0,30.06,SW,230,0.0,0.0,96,0.00,,,0.00,WeatherTracker,2010-05-26 10:54:00,
2010-05-26 05:59:00,62.1,60.9,30.06,SW,230,0.0,0.0,96,0.00,,,0.00,WeatherTracker,2010-05-26 10:59:00,
2010-05-26 06:04:00,62.0,60.8,30.07,SW,229,0.0,0.0,96,0.00,,,0.00,WeatherTracker,2010-05-26 11:04:00,
2010-05-26 06:09:00,62.0,60.8,30.07,SW,229,0.0,0.0,96,0.00,,,0.00,WeatherTracker,2010-05-26 11:09:00,
2010-05-26 06:14:00,62.0,60.8,30.07,SW,229,0.0,0.0,96,0.00,,,0.00,WeatherTracker,2010-05-26 11:14:00,
2010-05-26 06:19:00,61.9,60.7,30.07,SW,229,0.0,0.0,96,0.00,,,0.00,WeatherTracker,2010-05-26 11:19:00,
2010-05-26 06:24:00,61.8,60.6,30.07,SW,229,0.0,0.0,96,0.00,,,0.00,WeatherTracker,2010-05-26 11:24:00,
2010-05-26 06:29:00,61.8,60.6,30.08,SW,229,0.0,0.0,96,0.00,,,0.00,WeatherTracker,2010-05-26 11:29:00,
2010-05-26 06:34:00,62.0,61.1,30.08,SW,230,0.0,0.0,97,0.00,,,0.00,WeatherTracker,2010-05-26 11:34:00,
2010-05-26 06:39:00,62.3,61.1,30.08,SW,229,0.0,0.0,96,0.00,,,0.00,WeatherTracker,2010-05-26 11:39:00,
2010-05-26 06:44:00,62.4,61.2,30.08,SW,229,0.0,0.0,96,0.00,,,0.00,WeatherTracker,2010-05-26 11:44:00,
2010-05-26 06:49:00,62.5,61.6,30.08,SW,229,0.0,0.0,97,0.00,,,0.00,WeatherTracker,2010-05-26 11:49:00,
2010-05-26 06:54:00,62.9,62.0,30.08,SW,229,0.0,0.0,97,0.00,,,0.00,WeatherTracker,2010-05-26 11:54:00,
2010-05-26 06:59:00,63.1,62.2,30.08,SW,229,0.0,0.0,97,0.00,,,0.00,WeatherTracker,2010-05-26 11:59:00,
2010-05-26 07:04:00,63.3,62.4,30.08,SW,229,0.0,0.0,97,0.00,,,0.00,WeatherTracker,2010-05-26 12:04:00,
2010-05-26 07:09:00,63.4,62.5,30.08,SW,230,0.0,0.0,97,0.00,,,0.00,WeatherTracker,2010-05-26 12:09:00,
2010-05-26 07:14:00,63.7,62.8,30.08,NNW,337,0.0,0.0,97,0.00,,,0.00,WeatherTracker,2010-05-26 12:14:00,
2010-05-26 07:19:00,64.0,63.1,30.08,North,11,2.0,0.0,97,0.00,,,0.00,WeatherTracker,2010-05-26 12:19:00,
2010-05-26 07:24:00,64.2,63.3,30.09,North,10,2.0,0.0,97,0.00,,,0.00,WeatherTracker,2010-05-26 12:24:00,
2010-05-26 07:29:00,64.4,63.5,30.09,North,10,0.0,0.0,97,0.00,,,0.00,WeatherTracker,2010-05-26 12:29:00,
2010-05-26 07:34:00,64.6,63.7,30.09,North,10,0.0,0.0,97,0.00,,,0.00,WeatherTracker,2010-05-26 12:34:00,
2010-05-26 07:40:00,64.8,63.9,30.09,North,10,0.0,0.0,97,0.00,,,0.00,WeatherTracker,2010-05-26 12:40:00,
2010-05-26 07:45:00,65.1,64.2,30.09,North,10,0.0,0.0,97,0.00,,,0.00,WeatherTracker,2010-05-26 12:45:00,
2010-05-26 07:50:00,65.4,64.5,30.09,NNW,336,0.0,0.0,97,0.00,,,0.00,WeatherTracker,2010-05-26 12:50:00,
2010-05-26 07:55:00,65.8,64.9,30.09,NNW,348,0.0,0.0,97,0.00,,,0.00,WeatherTracker,2010-05-26 12:55:00,
2010-05-26 08:00:00,66.1,65.2,30.10,NW,326,0.0,0.0,97,0.00,,,0.00,WeatherTracker,2010-05-26 13:00:00,
2010-05-26 08:05:00,66.2,65.3,30.10,NNW,327,0.0,0.0,97,0.00,,,0.00,WeatherTracker,2010-05-26 13:05:00,
2010-05-26 08:10:00,66.3,65.4,30.10,NNW,327,0.0,0.0,97,0.00,,,0.00,WeatherTracker,2010-05-26 13:10:00,
2010-05-26 08:15:00,66.3,65.1,30.10,NNW,327,0.0,0.0,96,0.00,,,0.00,WeatherTracker,2010-05-26 13:15:00,
2010-05-26 08:20:00,66.5,65.6,30.10,NW,326,0.0,0.0,97,0.00,,,0.00,WeatherTracker,2010-05-26 13:20:00,
2010-05-26 08:25:00,66.7,65.5,30.10,NW,326,0.0,0.0,96,0.00,,,0.00,WeatherTracker,2010-05-26 13:25:00,
2010-05-26 08:30:00,66.7,65.5,30.10,West,275,1.0,0.0,96,0.00,,,0.00,WeatherTracker,2010-05-26 13:30:00,
2010-05-26 08:35:00,66.8,65.6,30.10,West,275,0.0,0.0,96,0.00,,,0.00,WeatherTracker,2010-05-26 13:35:00,
2010-05-26 08:40:00,67.0,65.8,30.10,West,275,0.0,0.0,96,0.00,,,0.00,WeatherTracker,2010-05-26 13:40:00,
2010-05-26 08:45:00,67.2,66.0,30.10,West,275,0.0,0.0,96,0.00,,,0.00,WeatherTracker,2010-05-26 13:45:00,
2010-05-26 08:50:00,67.4,66.2,30.10,West,275,1.0,0.0,96,0.00,,,0.00,WeatherTracker,2010-05-26 13:50:00,
2010-05-26 08:55:00,68.0,66.8,30.10,West,275,1.0,0.0,96,0.00,,,0.00,WeatherTracker,2010-05-26 13:55:00,
2010-05-26 09:00:00,68.6,67.1,30.10,ENE,60,0.0,0.0,95,0.00,,,0.00,WeatherTracker,2010-05-26 14:00:00,
2010-05-26 09:05:00,69.2,67.4,30.10,ENE,60,0.0,0.0,94,0.00,,,0.00,WeatherTracker,2010-05-26 14:05:00,
2010-05-26 09:10:00,69.8,67.7,30.10,ENE,60,0.0,0.0,93,0.00,,,0.00,WeatherTracker,2010-05-26 14:10:00,
2010-05-26 09:15:00,70.6,68.2,30.09,ENE,60,0.0,0.0,92,0.00,,,0.00,WeatherTracker,2010-05-26 14:15:00,
2010-05-26 09:20:00,71.1,68.0,30.10,NNW,348,0.0,0.0,90,0.00,,,0.00,WeatherTracker,2010-05-26 14:20:00,
2010-05-26 09:25:00,71.2,67.1,30.10,NNE,18,0.0,0.0,87,0.00,,,0.00,WeatherTracker,2010-05-26 14:25:00,
2010-05-26 09:30:00,71.3,66.9,30.10,NNE,17,0.0,0.0,86,0.00,,,0.00,WeatherTracker,2010-05-26 14:30:00,
2010-05-26 09:35:00,71.7,67.3,30.10,NNE,18,1.0,0.0,86,0.00,,,0.00,WeatherTracker,2010-05-26 14:35:00,
2010-05-26 09:40:00,72.3,67.9,30.10,NNE,18,0.0,0.0,86,0.00,,,0.00,WeatherTracker,2010-05-26 14:40:00,
2010-05-26 09:45:00,72.9,67.8,30.09,ENE,67,2.0,0.0,84,0.00,,,0.00,WeatherTracker,2010-05-26 14:45:00,
2010-05-26 09:50:00,73.3,67.5,30.09,NNE,26,3.0,0.0,82,0.00,,,0.00,WeatherTracker,2010-05-26 14:50:00,
2010-05-26 09:56:00,73.6,67.4,30.09,East,82,0.0,0.0,81,0.00,,,0.00,WeatherTracker,2010-05-26 14:56:00,
2010-05-26 10:01:00,74.1,68.6,30.09,NE,48,3.0,0.0,83,0.00,,,0.00,WeatherTracker,2010-05-26 15:01:00,
2010-05-26 10:06:00,74.1,67.5,30.09,NE,40,0.0,0.0,80,0.00,,,0.00,WeatherTracker,2010-05-26 15:06:00,
2010-05-26 10:11:00,74.5,67.2,30.09,NNE,13,1.0,0.0,78,0.00,,,0.00,WeatherTracker,2010-05-26 15:11:00,
2010-05-26 10:16:00,75.1,67.4,30.09,North,355,2.0,0.0,77,0.00,,,0.00,WeatherTracker,2010-05-26 15:16:00,
2010-05-26 10:21:00,75.7,67.6,30.09,ESE,120,0.0,0.0,76,0.00,,,0.00,WeatherTracker,2010-05-26 15:21:00,
2010-05-26 10:26:00,76.4,67.9,30.09,East,90,3.0,0.0,75,0.00,,,0.00,WeatherTracker,2010-05-26 15:26:00,
2010-05-26 10:31:00,76.8,67.5,30.08,NE,56,1.0,0.0,73,0.00,,,0.00,WeatherTracker,2010-05-26 15:31:00,
2010-05-26 10:36:00,76.6,67.7,30.08,NE,49,3.0,0.0,74,0.00,,,0.00,WeatherTracker,2010-05-26 15:36:00,
2010-05-26 10:41:00,76.3,67.0,30.09,ESE,105,3.0,0.0,73,0.00,,,0.00,WeatherTracker,2010-05-26 15:41:00,
2010-05-26 10:46:00,76.7,67.8,30.08,North,5,0.0,0.0,74,0.00,,,0.00,WeatherTracker,2010-05-26 15:46:00,
2010-05-26 10:51:00,77.1,67.0,30.08,NNE,25,4.0,0.0,71,0.00,,,0.00,WeatherTracker,2010-05-26 15:51:00,
2010-05-26 10:56:00,77.3,66.7,30.09,NE,40,3.0,0.0,70,0.00,,,0.00,WeatherTracker,2010-05-26 15:56:00,
2010-05-26 11:01:00,77.6,67.8,30.09,NNE,13,1.0,0.0,72,0.00,,,0.00,WeatherTracker,2010-05-26 16:01:00,
2010-05-26 11:07:00,78.0,67.0,30.09,NE,43,2.0,0.0,69,0.00,,,0.00,WeatherTracker,2010-05-26 16:07:00,
2010-05-26 11:12:00,78.0,65.7,30.09,North,360,1.0,0.0,66,0.00,,,0.00,WeatherTracker,2010-05-26 16:12:00,
2010-05-26 11:17:00,78.5,67.5,30.09,North,5,1.0,0.0,69,0.00,,,0.00,WeatherTracker,2010-05-26 16:17:00,
2010-05-26 11:22:00,78.7,67.2,30.09,ENE,74,3.0,0.0,68,0.00,,,0.00,WeatherTracker,2010-05-26 16:22:00,
2010-05-26 11:27:00,78.2,65.9,30.09,NE,38,2.0,0.0,66,0.00,,,0.00,WeatherTracker,2010-05-26 16:27:00,
2010-05-26 11:32:00,77.6,65.3,30.09,ENE,78,2.0,0.0,66,0.00,,,0.00,WeatherTracker,2010-05-26 16:32:00,
2010-05-26 11:37:00,78.0,66.6,30.08,East,92,2.0,0.0,68,0.00,,,0.00,WeatherTracker,2010-05-26 16:37:00,
2010-05-26 11:42:00,78.7,65.9,30.08,ESE,107,1.0,0.0,65,0.00,,,0.00,WeatherTracker,2010-05-26 16:42:00,
2010-05-26 11:47:00,79.4,65.7,30.08,ESE,105,4.0,0.0,63,0.00,,,0.00,WeatherTracker,2010-05-26 16:47:00,
2010-05-26 11:52:00,79.6,65.9,30.08,ENE,76,1.0,0.0,63,0.00,,,0.00,WeatherTracker,2010-05-26 16:52:00,
2010-05-26 11:57:00,80.2,65.5,30.08,NNW,343,2.0,0.0,61,0.00,,,0.00,WeatherTracker,2010-05-26 16:57:00,
2010-05-26 12:02:00,80.2,64.5,30.08,ENE,67,4.0,0.0,59,0.00,,,0.00,WeatherTracker,2010-05-26 17:02:00,
2010-05-26 12:07:00,80.3,64.6,30.07,NE,46,1.0,0.0,59,0.00,,,0.00,WeatherTracker,2010-05-26 17:07:00,
2010-05-26 12:12:00,80.8,66.1,30.07,NNE,32,3.0,0.0,61,0.00,,,0.00,WeatherTracker,2010-05-26 17:12:00,
2010-05-26 12:17:00,81.2,64.5,30.07,NNE,19,5.0,0.0,57,0.00,,,0.00,WeatherTracker,2010-05-26 17:17:00,
2010-05-26 12:22:00,81.2,65.0,30.07,SE,134,1.0,0.0,58,0.00,,,0.00,WeatherTracker,2010-05-26 17:22:00,
2010-05-26 12:27:00,81.3,65.6,30.07,ENE,69,5.0,0.0,59,0.00,,,0.00,WeatherTracker,2010-05-26 17:27:00,
2010-05-26 12:32:00,80.6,65.9,30.07,SE,144,3.0,0.0,61,0.00,,,0.00,WeatherTracker,2010-05-26 17:32:00,
2010-05-26 12:37:00,80.8,66.1,30.07,NNE,33,2.0,0.0,61,0.00,,,0.00,WeatherTracker,2010-05-26 17:37:00,
2010-05-26 12:42:00,80.7,66.0,30.07,ESE,107,3.0,0.0,61,0.00,,,0.00,WeatherTracker,2010-05-26 17:42:00,
2010-05-26 12:47:00,79.7,65.0,30.07,East,80,3.0,0.0,61,0.00,,,0.00,WeatherTracker,2010-05-26 17:47:00,
2010-05-26 12:52:00,79.5,65.3,30.07,NE,38,7.0,0.0,62,0.00,,,0.00,WeatherTracker,2010-05-26 17:52:00,
2010-05-26 12:57:00,79.3,65.6,30.07,ENE,63,4.0,0.0,63,0.00,,,0.00,WeatherTracker,2010-05-26 17:57:00,
2010-05-26 13:02:00,78.9,64.8,30.07,NE,52,3.0,0.0,62,0.00,,,0.00,WeatherTracker,2010-05-26 18:02:00,
2010-05-26 13:07:00,79.2,65.5,30.07,East,96,0.0,0.0,63,0.00,,,0.00,WeatherTracker,2010-05-26 18:07:00,
2010-05-26 13:13:00,80.3,65.1,30.07,NNE,21,5.0,0.0,60,0.00,,,0.00,WeatherTracker,2010-05-26 18:13:00,
2010-05-26 13:18:00,80.7,65.5,30.07,NNE,29,7.0,0.0,60,0.00,,,0.00,WeatherTracker,2010-05-26 18:18:00,
2010-05-26 13:23:00,80.5,65.3,30.07,ENE,74,0.0,0.0,60,0.00,,,0.00,WeatherTracker,2010-05-26 18:23:00,
2010-05-26 13:28:00,79.8,64.2,30.07,NE,51,2.0,0.0,59,0.00,,,0.00,WeatherTracker,2010-05-26 18:28:00,
2010-05-26 13:33:00,79.2,64.6,30.07,NE,41,3.0,0.0,61,0.00,,,0.00,WeatherTracker,2010-05-26 18:33:00,
2010-05-26 13:38:00,78.7,64.6,30.07,ENE,73,0.0,0.0,62,0.00,,,0.00,WeatherTracker,2010-05-26 18:38:00,
2010-05-26 13:43:00,79.1,64.9,30.07,ENE,68,0.0,0.0,62,0.00,,,0.00,WeatherTracker,2010-05-26 18:43:00,
2010-05-26 13:48:00,80.0,64.8,30.07,North,360,2.0,0.0,60,0.00,,,0.00,WeatherTracker,2010-05-26 18:48:00,
2010-05-26 13:53:00,80.8,65.6,30.07,North,5,7.0,0.0,60,0.00,,,0.00,WeatherTracker,2010-05-26 18:53:00,
2010-05-26 13:58:00,81.3,65.6,30.07,ENE,74,2.0,0.0,59,0.00,,,0.00,WeatherTracker,2010-05-26 18:58:00,
2010-05-26 14:03:00,81.3,66.1,30.07,East,91,2.0,0.0,60,0.00,,,0.00,WeatherTracker,2010-05-26 19:03:00,
2010-05-26 14:08:00,80.6,64.9,30.07,North,350,9.0,0.0,59,0.00,,,0.00,WeatherTracker,2010-05-26 19:08:00,
2010-05-26 14:13:00,80.8,66.1,30.07,NNE,15,5.0,0.0,61,0.00,,,0.00,WeatherTracker,2010-05-26 19:13:00,
2010-05-26 14:18:00,81.7,65.0,30.07,NNW,337,0.0,0.0,57,0.00,,,0.00,WeatherTracker,2010-05-26 19:18:00,
2010-05-26 14:23:00,82.3,64.5,30.07,NE,36,4.0,0.0,55,0.00,,,0.00,WeatherTracker,2010-05-26 19:23:00,
2010-05-26 14:28:00,82.1,64.3,30.06,ENE,76,2.0,0.0,55,0.00,,,0.00,WeatherTracker,2010-05-26 19:28:00,
2010-05-26 14:33:00,81.8,64.0,30.06,East,94,4.0,0.0,55,0.00,,,0.00,WeatherTracker,2010-05-26 19:33:00,
2010-05-26 14:38:00,81.1,64.4,30.06,NNW,344,5.0,0.0,57,0.00,,,0.00,WeatherTracker,2010-05-26 19:38:00,
2010-05-26 14:43:00,80.7,64.5,30.07,NNE,26,1.0,0.0,58,0.00,,,0.00,WeatherTracker,2010-05-26 19:43:00,
2010-05-26 14:48:00,80.5,65.8,30.06,North,10,3.0,0.0,61,0.00,,,0.00,WeatherTracker,2010-05-26 19:48:00,
2010-05-26 14:53:00,80.6,63.4,30.06,ESE,105,2.0,0.0,56,0.00,,,0.00,WeatherTracker,2010-05-26 19:53:00,
2010-05-26 14:58:00,80.5,64.8,30.06,NNE,17,4.0,0.0,59,0.00,,,0.00,WeatherTracker,2010-05-26 19:58:00,
2010-05-26 15:03:00,81.3,65.1,30.06,NNE,18,1.0,0.0,58,0.00,,,0.00,WeatherTracker,2010-05-26 20:03:00,
2010-05-26 15:08:00,81.8,64.0,30.05,ESE,105,5.0,0.0,55,0.00,,,0.00,WeatherTracker,2010-05-26 20:08:00,
2010-05-26 15:13:00,82.3,65.0,30.05,NNE,29,3.0,0.0,56,0.00,,,0.00,WeatherTracker,2010-05-26 20:13:00,
2010-05-26 15:18:00,82.5,65.7,30.05,NNW,330,7.0,0.0,57,0.00,,,0.00,WeatherTracker,2010-05-26 20:18:00,
2010-05-26 15:23:00,82.9,64.0,30.05,NE,49,6.0,0.0,53,0.00,,,0.00,WeatherTracker,2010-05-26 20:23:00,
2010-05-26 15:28:00,83.1,63.6,30.05,ENE,67,2.0,0.0,52,0.00,,,0.00,WeatherTracker,2010-05-26 20:28:00,
2010-05-26 15:33:00,83.2,64.8,30.05,ENE,58,2.0,0.0,54,0.00,,,0.00,WeatherTracker,2010-05-26 20:33:00,
2010-05-26 15:39:00,83.4,63.9,30.04,ENE,57,3.0,0.0,52,0.00,,,0.00,WeatherTracker,2010-05-26 20:39:00,
2010-05-26 15:44:00,83.3,62.7,30.05,SE,144,3.0,0.0,50,0.00,,,0.00,WeatherTracker,2010-05-26 20:44:00,
2010-05-26 15:49:00,83.3,62.1,30.04,East,92,6.0,0.0,49,0.00,,,0.00,WeatherTracker,2010-05-26 20:49:00,
2010-05-26 15:54:00,83.1,62.5,30.04,NE,49,1.0,0.0,50,0.00,,,0.00,WeatherTracker,2010-05-26 20:54:00,
2010-05-26 15:59:00,83.4,63.3,30.04,East,89,1.0,0.0,51,0.00,,,0.00,WeatherTracker,2010-05-26 20:59:00,
2010-05-26 16:04:00,83.2,62.6,30.04,ENE,73,9.0,0.0,50,0.00,,,0.00,WeatherTracker,2010-05-26 21:04:00,
2010-05-26 16:09:00,83.0,61.8,30.04,NNE,22,5.0,0.0,49,0.00,,,0.00,WeatherTracker,2010-05-26 21:09:00,
2010-05-26 16:14:00,83.1,61.3,30.03,NW,322,0.0,0.0,48,0.00,,,0.00,WeatherTracker,2010-05-26 21:14:00,
2010-05-26 16:19:00,83.6,62.4,30.03,NW,318,3.0,0.0,49,0.00,,,0.00,WeatherTracker,2010-05-26 21:19:00,
2010-05-26 16:24:00,83.9,62.7,30.03,NE,40,3.0,0.0,49,0.00,,,0.00,WeatherTracker,2010-05-26 21:24:00,
2010-05-26 16:29:00,83.5,61.7,30.03,North,360,6.0,0.0,48,0.00,,,0.00,WeatherTracker,2010-05-26 21:29:00,
2010-05-26 16:34:00,83.0,61.3,30.02,East,80,4.0,0.0,48,0.00,,,0.00,WeatherTracker,2010-05-26 21:34:00,
2010-05-26 16:39:00,82.8,61.7,30.02,North,350,2.0,0.0,49,0.00,,,0.00,WeatherTracker,2010-05-26 21:39:00,
2010-05-26 16:44:00,83.1,60.8,30.02,NE,42,4.0,0.0,47,0.00,,,0.00,WeatherTracker,2010-05-26 21:44:00,
2010-05-26 16:49:00,83.4,62.2,30.02,North,5,11.0,0.0,49,0.00,,,0.00,WeatherTracker,2010-05-26 21:49:00,
2010-05-26 16:54:00,83.1,61.9,30.02,NNE,17,1.0,0.0,49,0.00,,,0.00,WeatherTracker,2010-05-26 21:54:00,
2010-05-26 16:59:00,82.9,61.7,30.02,NE,46,1.0,0.0,49,0.00,,,0.00,WeatherTracker,2010-05-26 21:59:00,
2010-05-26 17:04:00,83.0,62.4,30.02,NNW,342,0.0,0.0,50,0.00,,,0.00,WeatherTracker,2010-05-26 22:04:00,
2010-05-26 17:10:00,83.0,61.8,30.02,ESE,114,4.0,0.0,49,0.00,,,0.00,WeatherTracker,2010-05-26 22:10:00,
2010-05-26 17:15:00,82.9,61.2,30.02,NNE,24,4.0,0.0,48,0.00,,,0.00,WeatherTracker,2010-05-26 22:15:00,
2010-05-26 17:20:00,82.9,61.2,30.02,NE,34,5.0,0.0,48,0.00,,,0.00,WeatherTracker,2010-05-26 22:20:00,
2010-05-26 17:25:00,83.0,61.3,30.02,North,355,2.0,0.0,48,0.00,,,0.00,WeatherTracker,2010-05-26 22:25:00,
2010-05-26 17:30:00,83.2,62.0,30.02,NNE,19,5.0,0.0,49,0.00,,,0.00,WeatherTracker,2010-05-26 22:30:00,
2010-05-26 17:35:00,82.9,61.2,30.01,ENE,76,2.0,0.0,48,0.00,,,0.00,WeatherTracker,2010-05-26 22:35:00,
2010-05-26 17:40:00,82.6,60.9,30.01,North,360,5.0,0.0,48,0.00,,,0.00,WeatherTracker,2010-05-26 22:40:00,
2010-05-26 17:45:00,82.7,62.1,30.01,ENE,64,0.0,0.0,50,0.00,,,0.00,WeatherTracker,2010-05-26 22:45:00,
2010-05-26 17:50:00,82.9,61.7,30.01,North,350,3.0,0.0,49,0.00,,,0.00,WeatherTracker,2010-05-26 22:50:00,
2010-05-26 17:55:00,82.6,62.0,30.01,NE,34,2.0,0.0,50,0.00,,,0.00,WeatherTracker,2010-05-26 22:55:00,
2010-05-26 18:00:00,82.3,61.8,30.01,NNW,327,1.0,0.0,50,0.00,,,0.00,WeatherTracker,2010-05-26 23:00:00,
2010-05-26 18:05:00,81.9,62.5,30.02,NNW,327,0.0,0.0,52,0.00,,,0.00,WeatherTracker,2010-05-26 23:05:00,
2010-05-26 18:10:00,81.6,61.1,30.01,NNW,334,2.0,0.0,50,0.00,,,0.00,WeatherTracker,2010-05-26 23:10:00,
2010-05-26 18:15:00,81.6,62.2,30.01,North,5,3.0,0.0,52,0.00,,,0.00,WeatherTracker,2010-05-26 23:15:00,
2010-05-26 18:20:00,81.5,62.2,30.01,ESE,110,2.0,0.0,52,0.00,,,0.00,WeatherTracker,2010-05-26 23:20:00,
2010-05-26 18:25:00,81.3,62.5,30.01,NE,42,2.0,0.0,53,0.00,,,0.00,WeatherTracker,2010-05-26 23:25:00,
2010-05-26 18:30:00,81.3,62.5,30.01,NE,40,2.0,0.0,53,0.00,,,0.00,WeatherTracker,2010-05-26 23:30:00,
2010-05-26 18:35:00,81.1,61.8,30.01,East,89,0.0,0.0,52,0.00,,,0.00,WeatherTracker,2010-05-26 23:35:00,
2010-05-26 18:40:00,80.8,61.0,30.01,NNE,15,2.0,0.0,51,0.00,,,0.00,WeatherTracker,2010-05-26 23:40:00,
2010-05-26 18:45:00,80.6,61.3,30.01,North,355,1.0,0.0,52,0.00,,,0.00,WeatherTracker,2010-05-26 23:45:00,
2010-05-26 18:50:00,80.4,61.7,30.01,North,355,1.0,0.0,53,0.00,,,0.00,WeatherTracker,2010-05-26 23:50:00,
2010-05-26 18:55:00,80.0,61.3,30.01,North,5,0.0,0.0,53,0.00,,,0.00,WeatherTracker,2010-05-26 23:55:00,
2010-05-26 19:00:00,79.7,62.1,30.00,East,101,2.0,0.0,55,0.00,,,0.00,WeatherTracker,2010-05-27 00:00:00,
2010-05-26 19:05:00,79.4,62.8,30.01,ENE,65,1.0,0.0,57,0.00,,,0.00,WeatherTracker,2010-05-27 00:05:00,
2010-05-26 19:10:00,79.2,63.1,30.01,NE,47,2.0,0.0,58,0.00,,,0.00,WeatherTracker,2010-05-27 00:10:00,
2010-05-26 19:16:00,79.0,62.4,30.01,NNE,24,0.0,0.0,57,0.00,,,0.00,WeatherTracker,2010-05-27 00:16:00,
2010-05-26 19:21:00,78.9,62.8,30.01,ENE,66,1.0,0.0,58,0.00,,,0.00,WeatherTracker,2010-05-27 00:21:00,
2010-05-26 19:26:00,78.8,62.3,30.01,NNE,26,3.0,0.0,57,0.00,,,0.00,WeatherTracker,2010-05-27 00:26:00,
2010-05-26 19:31:00,78.7,62.7,30.01,NNE,30,0.0,0.0,58,0.01,,,0.01,WeatherTracker,2010-05-27 00:31:00,
2010-05-26 19:36:00,78.6,62.6,30.01,North,355,1.0,0.0,58,0.01,,,0.01,WeatherTracker,2010-05-27 00:36:00,
2010-05-26 19:41:00,78.5,63.0,30.01,North,5,1.0,0.0,59,0.01,,,0.01,WeatherTracker,2010-05-27 00:41:00,
2010-05-26 19:46:00,78.5,63.0,30.02,East,88,3.0,0.0,59,0.01,,,0.01,WeatherTracker,2010-05-27 00:46:00,
2010-05-26 19:51:00,78.5,63.0,30.02,NNE,28,0.0,0.0,59,0.01,,,0.01,WeatherTracker,2010-05-27 00:51:00,
2010-05-26 19:56:00,78.5,62.5,30.02,NNE,30,0.0,0.0,58,0.01,,,0.01,WeatherTracker,2010-05-27 00:56:00,
2010-05-26 20:01:00,78.4,63.8,30.01,NE,37,0.0,0.0,61,0.01,,,0.01,WeatherTracker,2010-05-27 01:01:00,
2010-05-26 20:06:00,78.1,63.1,30.02,ENE,58,0.0,0.0,60,0.01,,,0.01,WeatherTracker,2010-05-27 01:06:00,
2010-05-26 20:11:00,77.8,62.3,30.02,ENE,58,0.0,0.0,59,0.01,,,0.01,WeatherTracker,2010-05-27 01:11:00,
2010-05-26 20:16:00,77.6,62.6,30.02,NE,55,0.0,0.0,60,0.01,,,0.01,WeatherTracker,2010-05-27 01:16:00,
2010-05-26 20:21:00,77.4,62.4,30.02,NE,55,0.0,0.0,60,0.01,,,0.01,WeatherTracker,2010-05-27 01:21:00,
2010-05-26 20:26:00,77.1,62.1,30.02,NE,55,0.0,0.0,60,0.00,,,0.01,WeatherTracker,2010-05-27 01:26:00,
2010-05-26 20:31:00,76.7,62.2,30.03,NE,54,1.0,0.0,61,0.00,,,0.01,WeatherTracker,2010-05-27 01:31:00,
2010-05-26 20:36:00,76.3,62.3,30.03,NE,54,0.0,0.0,62,0.00,,,0.01,WeatherTracker,2010-05-27 01:36:00,
2010-05-26 20:41:00,75.9,61.9,30.03,NE,53,0.0,0.0,62,0.00,,,0.01,WeatherTracker,2010-05-27 01:41:00,
2010-05-26 20:46:00,75.6,61.2,30.03,NE,54,0.0,0.0,61,0.00,,,0.01,WeatherTracker,2010-05-27 01:46:00,
2010-05-26 20:51:00,75.3,61.8,30.03,NE,54,0.0,0.0,63,0.00,,,0.01,WeatherTracker,2010-05-27 01:51:00,
2010-05-26 20:56:00,75.0,61.5,30.04,NE,54,0.0,0.0,63,0.00,,,0.01,WeatherTracker,2010-05-27 01:56:00,
2010-05-26 21:01:00,74.6,61.2,30.03,NE,54,0.0,0.0,63,0.00,,,0.01,WeatherTracker,2010-05-27 02:01:00,
2010-05-26 21:07:00,74.3,60.9,30.04,NE,54,0.0,0.0,63,0.00,,,0.01,WeatherTracker,2010-05-27 02:07:00,
2010-05-26 21:12:00,74.0,61.0,30.04,NE,54,0.0,0.0,64,0.00,,,0.01,WeatherTracker,2010-05-27 02:12:00,
2010-05-26 21:17:00,73.6,60.2,30.04,NE,53,0.0,0.0,63,0.00,,,0.01,WeatherTracker,2010-05-27 02:17:00,
2010-05-26 21:22:00,73.4,60.0,30.04,NE,54,0.0,0.0,63,0.00,,,0.01,WeatherTracker,2010-05-27 02:22:00,
2010-05-26 21:27:00,73.3,60.4,30.04,NE,54,0.0,0.0,64,0.00,,,0.01,WeatherTracker,2010-05-27 02:27:00,
2010-05-26 21:32:00,73.2,60.3,30.05,NE,53,0.0,0.0,64,0.00,,,0.01,WeatherTracker,2010-05-27 02:32:00,
2010-05-26 21:37:00,73.0,59.2,30.05,NE,53,0.0,0.0,62,0.00,,,0.01,WeatherTracker,2010-05-27 02:37:00,
2010-05-26 21:42:00,72.8,59.0,30.05,NE,53,0.0,0.0,62,0.00,,,0.01,WeatherTracker,2010-05-27 02:42:00,
2010-05-26 21:47:00,72.6,59.7,30.05,NE,54,0.0,0.0,64,0.00,,,0.01,WeatherTracker,2010-05-27 02:47:00,
2010-05-26 21:52:00,72.4,59.1,30.05,NE,53,0.0,0.0,63,0.00,,,0.01,WeatherTracker,2010-05-27 02:52:00,
2010-05-26 21:57:00,71.9,58.6,30.06,NE,54,0.0,0.0,63,0.00,,,0.01,WeatherTracker,2010-05-27 02:57:00,
2010-05-26 22:02:00,71.6,58.3,30.06,NE,54,0.0,0.0,63,0.00,,,0.01,WeatherTracker,2010-05-27 03:02:00,
2010-05-26 22:07:00,71.3,58.5,30.06,NE,53,0.0,0.0,64,0.00,,,0.01,WeatherTracker,2010-05-27 03:07:00,
2010-05-26 22:12:00,71.0,59.9,30.06,NE,53,0.0,0.0,68,0.00,,,0.01,WeatherTracker,2010-05-27 03:12:00,
2010-05-26 22:17:00,70.7,60.0,30.06,NE,54,0.0,0.0,69,0.00,,,0.01,WeatherTracker,2010-05-27 03:17:00,
2010-05-26 22:22:00,70.3,59.6,30.07,NE,53,0.0,0.0,69,0.00,,,0.01,WeatherTracker,2010-05-27 03:22:00,
2010-05-26 22:27:00,69.9,59.3,30.07,NE,54,0.0,0.0,69,0.00,,,0.01,WeatherTracker,2010-05-27 03:27:00,
2010-05-26 22:32:00,69.6,59.0,30.07,NE,53,0.0,0.0,69,0.00,,,0.01,WeatherTracker,2010-05-27 03:32:00,
2010-05-26 22:37:00,69.4,59.2,30.07,NE,54,0.0,0.0,70,0.00,,,0.01,WeatherTracker,2010-05-27 03:37:00,
2010-05-26 22:42:00,69.0,58.8,30.07,NE,54,0.0,0.0,70,0.00,,,0.01,WeatherTracker,2010-05-27 03:42:00,
2010-05-26 22:47:00,68.7,58.9,30.08,NE,54,0.0,0.0,71,0.00,,,0.01,WeatherTracker,2010-05-27 03:47:00,
2010-05-26 22:52:00,68.4,59.0,30.08,NE,54,0.0,0.0,72,0.00,,,0.01,WeatherTracker,2010-05-27 03:52:00,
2010-05-26 22:57:00,68.0,59.0,30.08,NE,53,0.0,0.0,73,0.00,,,0.01,WeatherTracker,2010-05-27 03:57:00,
2010-05-26 23:00:00,67.8,58.8,30.08,NE,54,0.0,0.0,73,0.00,,,0.01,WeatherTracker,2010-05-27 04:00:00,
2010-05-26 23:05:00,67.4,58.4,30.08,NE,54,0.0,0.0,73,0.00,,,0.01,WeatherTracker,2010-05-27 04:05:00,
2010-05-26 23:10:00,67.0,58.1,30.08,NE,54,0.0,0.0,73,0.00,,,0.01,WeatherTracker,2010-05-27 04:10:00,
2010-05-26 23:15:00,66.7,57.8,30.08,NE,53,0.0,0.0,73,0.00,,,0.01,WeatherTracker,2010-05-27 04:15:00,
2010-05-26 23:20:00,66.3,56.6,30.08,NE,54,0.0,0.0,71,0.00,,,0.01,WeatherTracker,2010-05-27 04:20:00,
2010-05-26 23:25:00,66.0,56.7,30.08,NE,53,0.0,0.0,72,0.00,,,0.01,WeatherTracker,2010-05-27 04:25:00,
2010-05-26 23:31:00,65.7,56.0,30.08,NE,53,0.0,0.0,71,0.00,,,0.01,WeatherTracker,2010-05-27 04:31:00,
2010-05-26 23:36:00,65.5,56.2,30.08,NE,54,0.0,0.0,72,0.00,,,0.01,WeatherTracker,2010-05-27 04:36:00,
2010-05-26 23:41:00,65.2,56.3,30.09,NE,53,0.0,0.0,73,0.00,,,0.01,WeatherTracker,2010-05-27 04:41:00,
2010-05-26 23:46:00,65.0,56.1,30.09,NE,54,0.0,0.0,73,0.00,,,0.01,WeatherTracker,2010-05-27 04:46:00,
2010-05-26 23:51:00,64.7,55.5,30.09,NE,53,0.0,0.0,72,0.00,,,0.01,WeatherTracker,2010-05-27 04:51:00,
2010-05-26 23:56:00,64.4,54.8,30.09,NE,53,0.0,0.0,71,0.00,,,0.01,WeatherTracker,2010-05-27 04:56:00,